Location: Campbell Lake
(32.1204°N, 97.6289°W)
Time: 01:12:05
(UTC+00:00)

ARIANE 6 FM1 Upper Stage - Pass Details

Date: 14 December 2025
Orbit: 522 x 610 km, 62.0° (Epoch: 16 January)

Event Time Altitude Azimuth Distance (km) Brightness Sun altitude
Rises 12:52:58 0° 228° (SW) 2,710 5.9 -6.7°
Reaches altitude 10° 12:55:19 10° 237° (WSW) 1,805 4.9 -6.2°
Maximum altitude 12:59:05 37° 305° (NW) 849 3.1 -5.5°
Drops below altitude 10° 13:02:48 10° 14° (NNE) 1,776 5.1 -4.8°
Sets 13:05:06 0° 23° (NNE) 2,660 6.1 -4.3°
